Home   Weather   Sapporo   Past weeks

Flag for Japan Past Weather in Sapporo, Japan — Yesterday and Last 2 Weeks

Now
63 °F

Overcast.


Feels Like: 63 °F
Forecast: 51 / 59 °F
Wind: 3 mph from Northeast

Location: Sapporo

Current Time: May 26, 2017 at 9:54:09 pm

Latest Report: May 26, 2017 at 9:00 pm


Visibility: 9 mi

Pressure: 29.77 "Hg

Humidity: 66%

Dew Point: 51 °F

Location of SapporoLocation

Past Weather in Sapporo — Graph

°F

Sapporo Temperature Yesterday

Maximum temperature yesterday: 65 °F (at 12:00 pm)
Minimum temperature yesterday: 55 °F (at 11:00 pm)
Average temperature yesterday: 58 °F

High & Low Weather Summary for the Past Weeks

 TemperatureHumidityPressure
High81 °F (May 19, 3:00 pm)95% (May 11, 10:00 pm)30.06 "Hg (May 11, 10:00 pm)
Low46 °F (May 15, 3:00 am)24% (May 18, 3:00 pm)29.70 "Hg (May 16, 3:00 pm)
Average58 °F65%29.87 "Hg
* Reported May 11 8:00 pm — May 26 8:00 pm, Sapporo. Weather by CustomWeather, © 2017

Note: Actual official high and low records may vary slightly from our data, if they occured in-between our weather recording intervals... More about our weather records

Advertising

Sapporo Weather History for the Previous 24 Hours

Scroll right to see more
 ConditionsComfort  
Time TempWeatherWind HumidityBarometerVisibility
8:00 pm
Fri, May 26
63 °FMild.5 mph66%29.77 "HgN/A
7:00 pm64 °FMild.5 mph64%29.75 "HgN/A
6:00 pm64 °FPartly sunny.9 mph61%29.75 "Hg9 mi
5:00 pm65 °FMild.10 mph61%29.74 "HgN/A
4:00 pm67 °FMild.7 mph59%29.73 "HgN/A
3:00 pm66 °FOvercast.6 mph60%29.74 "Hg12 mi
2:00 pm67 °FMild.9 mph60%29.74 "HgN/A
1:00 pm72 °FMild.9 mph55%29.72 "HgN/A
12:00 pm72 °FPartly sunny.7 mph49%29.73 "Hg12 mi
11:00 am72 °FMild.6 mph49%29.75 "HgN/A
10:00 am69 °FMild.5 mph54%29.75 "HgN/A
9:00 am66 °FPassing clouds.5 mph60%29.77 "Hg9 mi
8:00 am64 °FMild.3 mph63%29.78 "HgN/A
7:00 am61 °FCool.3 mph69%29.78 "HgN/A
6:00 am57 °FPassing clouds.2 mph78%29.78 "Hg6 mi
5:00 am54 °FCool.3 mph83%29.77 "HgN/A
4:00 am53 °FCool.2 mph86%29.78 "HgN/A
3:00 am54 °FFog.1 mph85%29.78 "Hg5 mi
2:00 am53 °FCool.1 mph87%29.79 "HgN/A
1:00 am54 °FCool.No wind86%29.80 "HgN/A
12:00 am54 °FCool.1 mph83%29.82 "HgN/A
11:00 pm
Thu, May 25
55 °FCool.3 mph83%29.82 "HgN/A
10:00 pm55 °FCool.6 mph81%29.83 "HgN/A
9:00 pm56 °FOvercast.5 mph80%29.83 "Hg6 mi
Weather by CustomWeather, © 2017

See weather overviewHow to use our weather pages